Regional Weather Roundup
Issued by NWS

Home | Current Version | Previous Version | Text Only | Print | Product List | Glossary Off
Versions: 1 2 3 4 5 6 7 8 9 10 11 12 13 14 15 16 17 18 19 20 21 22 23 24 25 26 27 28 29 30 31 32 33 34 35 36 37 38 39 40 41 42 43 44 45 46 47 48 49 50

094
ASUS43 KDTX 220701
RWRMI
MICHIGAN HOURLY REGIONAL WEATHER ROUNDUP
NATIONAL WEATHER SERVICE DETROIT/PONTIAC MI
200 AM EST WED NOV 22 2017

NOTE: "FAIR" INDICATES FEW OR NO CLOUDS BELOW 12,000 FEET WITH NO
SIGNIFICANT WEATHER AND/OR OBSTRUCTION TO VISIBILITY.

MIZ047>049-052>055-059>063-066>070-074>076-081>083-220800-
SOUTHEAST LOWER MICHIGAN

CITY           SKY/WX    TMP DP  RH WIND       PRES   REMARKS
ADRIAN         CLOUDY    33  22  63 N10       30.11R WCI  25
ALMA           CLOUDY    30  18  61 NW9G17    30.13R WCI  21
ANN ARBOR      CLOUDY    32  22  66 NW12      30.08R WCI  23
BAD AXE        CLOUDY    30  17  58 NW14      30.08R WCI  19
CARO           CLOUDY    31  23  72 NW15      30.08R WCI  20
DETROIT CITY   CLOUDY    34  21  59 NW9G22    30.08R WCI  27
DETROIT        CLOUDY    34  23  64 NW13      30.09R WCI  25
FLINT          CLOUDY    31  19  61 NW13      30.10R WCI  21
GROSSE ILE     CLOUDY    34  24  66 NW13      30.07R WCI  25
HILLSDALE      CLOUDY    32  21  64 NW14      30.09R WCI  22
HOWELL         CLOUDY    31  21  66 NW6G17    30.09R WCI  25

CITY           SKY/WX    TMP DP  RH WIND       PRES   REMARKS
JACKSON        CLOUDY    32  20  61 NW10      30.10R WCI  24
LAMBERTVILLE   CLOUDY    36  26  66 N7        30.09R WCI  30
LANSING        CLOUDY    30  21  69 NW12      30.12R WCI  20
LAPEER         CLOUDY    31  21  66 NW3       30.08R
MASON          CLOUDY    32  21  64 NW12G17   30.11R WCI  23
MONROE         CLOUDY    35  24  63 NW9       30.08R WCI  28
MT. CLEMENS    CLOUDY    33  23  66 NW12      30.06R WCI  24
PONTIAC        CLOUDY    31  21  66 N12       30.06R WCI  22
PORT HOPE        N/A     31  18  58 NW18G26   30.05R WCI  19
PORT HURON     CLOUDY    32  21  64 NW9       30.07R WCI  24
TRI CITIES     CLOUDY    30  20  66 NW16      30.12R WCI  19
MIDLAND        CLOUDY    30  19  63 NW8       30.11R WCI  23
TROY           CLOUDY    35  21  57 NW9G16    30.09R WCI  27
SAGINAW HB     CLOUDY    30  19  64 NW12      30.10R WCI  21
$$
MIZ043>046-050>051-056>058-064>065-071>073-077>080-220800-
SOUTHWEST LOWER MICHIGAN

CITY           SKY/WX    TMP DP  RH WIND       PRES   REMARKS
BATTLE CREEK   CLOUDY    31  20  63 N10       30.12R WCI  22
BENTON HARBOR  CLOUDY    34  20  56 NW9       30.17R WCI  27
BIG RAPIDS     CLOUDY    27  15  60 NW5       30.12R WCI  22
COLDWATER      CLOUDY    32  20  62 NW8       30.12R WCI  25
FREMONT        CLOUDY    28  19  69 N10       30.16R WCI  19
HOLLAND        CLOUDY    32  20  61 N8        30.16R WCI  25
GRAND RAPIDS   CLOUDY    31  21  66 NW12      30.13R WCI  22
IONIA          CLOUDY    31  20  63 NW8G16    30.12R WCI  24
KALAMAZOO      CLOUDY    32  20  61 N7        30.13R WCI  26
LUDINGTON      CLOUDY    29  17  62 N9        30.16R WCI  20
MARSHALL       CLOUDY    31  20  64 NW9       30.11R WCI  23
MOUNT PLEASANT CLOUDY    30  15  54 NW6G20    30.12R WCI  24
MUSKEGON       CLOUDY    30  16  56 N17G26    30.18R WCI  18
SOUTH HAVEN    CLOUDY    35  22  61 NW10G21   30.16R WCI  27
$$
MIZ016>042-220800-
NORTHERN LOWER MICHIGAN

CITY           SKY/WX    TMP DP  RH WIND       PRES   REMARKS
ALPENA         CLOUDY    28  17  63 NW9G17    30.07R WCI  19
BEAVER ISLAND  MOCLDY    28  20  72 NW8G20    30.12R WCI  20
BELLAIRE       LGT SNOW  27  26  94 NW5       30.12R WCI  22
CADILLAC       CLOUDY    26  16  65 NW8G16    30.08R WCI  17
CHARLEVOIX     FLURRIES  30  19  63 NW20G29   30.14R WCI  17
FRANKFORT      CLOUDY    31  19  61 NW8       30.15R WCI  23
GAYLORD        CLOUDY    25  16  68 VRB5      30.05R WCI  19
GRAYLING       FLURRIES  25  20  83 W6        30.08R WCI  18
HARBOR SPRINGS FLURRIES  28  19  68 W9        30.09R WCI  19
HOUGHTON LAKE  LGT SNOW  25  21  85 NW10      30.08R FOG     WCI  15
MANISTEE       FLURRIES  29  19  66 NW8       30.15S WCI  21
OSCODA         PTCLDY    25  13  60 NW6       30.08R WCI  18
PELLSTON       CLOUDY    28  18  66 NW14      30.09R WCI  17
ROGERS CITY    FLURRIES  28  20  72 N13G20    30.07R WCI  17
TRAVERSE CITY  CLOUDY    30  19  63 NW13      30.12R WCI  20
$$
MIZ007>008-015-220800-
EASTERN UPPER MICHIGAN

CITY           SKY/WX    TMP DP  RH WIND       PRES   REMARKS
KINROSS        LGT SNOW  19  16  88 NE5       30.08R FOG     WCI  12
MACKINAC ISLAN FLURRIES  27  21  79 NW10      30.08R WCI  17
NEWBERRY       LGT SNOW  20  20  97 W5        30.09R WCI  14
S. S. MARIE    CLOUDY    22  12  65 N5        30.07R WCI  16
MUNISING         N/A     27  25  92 N14       30.13R WCI  16
$$
MIZ004>006-011>014-085-220800-
CENTRAL UPPER MICHIGAN

CITY           SKY/WX    TMP DP  RH WIND       PRES   REMARKS
MANISTIQUE     FLURRIES  22  17  81 W9        30.13R WCI  12
ESCANABA       CLOUDY    24  16  71 NW8       30.18R WCI  15
MENOMINEE      CLOUDY    24  14  65 VRB5      30.21R WCI  18
SAWYER-GWINN   FLURRIES  20  15  81 W7        30.13R WCI  11
$$
MIZ001>003-009>011-084-220800-
WESTERN UPPER MICHIGAN

CITY           SKY/WX    TMP DP  RH WIND       PRES   REMARKS
IRON MOUNTAIN  CLOUDY    22  13  68 NW9       30.16R WCI  12
HOUGHTON       CLOUDY    23  14  68 NW17      30.14R WCI   9
COPPER HARBOR    N/A     28  19  69 N21G29    30.14R WCI  15
IRONWOOD       FLURRIES  18  14  84 W12       30.21R WCI   5
$$

ABBREVIATIONS USED IN REMARKS
   TC - TEMPERATURE IN CELSIUS
  WCI - WIND CHILL INDEX
   HX - HEAT INDEX
  VSB - VISIBILITY





USA.gov is the U.S. government's official web portal to all federal, state and local government web resources and services.